Powrót do katalogu

STARLINK-32035

AktywnyŁącznośćVLEO
NORAD 60107·PAYLOAD·🇺🇸 United States

Wystrzelony Jun 23, 2024 z Cape Canaveral Space Force Station

Loading…

Następne Przeloty (najbliższe 24 godziny)

TLE

ŚwieżeSource: CelesTrak SupGP

Epoka: Sep 14, 2026, 22:28 UTC

1 60107C 24117S   26257.93659722  .00028171  00000+0  83217-3 0  2573
2 60107  53.1578 235.7074 0001426  94.1101 301.7393 15.34381786    15

Śledź STARLINK-32035 w czasie rzeczywistym z AllMySat

Download on the App Store